Whitefield, NH

5:08 AM EDT on August 27, 2016 (GMT -0400)
Mount Washington Regional

Weather History for KHIE - July, 2014

Change the Weather History Date:

Thursday, July 3, 2014

  Actual Average Record
Temperature  
Mean Temperature 75 °F -  
Max Temperature 88 °F 75 °F 93 °F (2002)
Min Temperature 63 °F 48 °F 36 °F (2001)
Cooling Degree Days 10    
Growing Degree Days 25 (Base 50)    
Moisture  
Dew Point 65 °F    
Average Humidity 85    
Maximum Humidity 100    
Minimum Humidity 46    
Precipitation  
Precipitation 0.51 in - - ()
Sea Level Pressure  
Sea Level Pressure 29.95 in    
Wind  
Wind Speed 2 mph (SW)    
Max Wind Speed 16 mph    
Max Gust Speed 31 mph    
Visibility 5 miles    
Events Fog , Rain , Thunderstorm    
Averages and records for this station are not official NWS values.
T = Trace of Precipitation, MM = Missing Value Source: NWS Daily Summary

Daily Weather History Graph

Daily Weather History Graph

Search for Another Location

Airport or City:

Trip Planner

Search our weather history database for the weather conditions in past years. The results will help you decide how hot, cold, wet, or windy it might be!

Date:

Astronomy

Jul. 03, 2014 Rise Set
Actual Time 5:06 AM EDT 8:33 PM EDT
Civil Twilight 4:30 AM EDT 9:09 PM EDT
Nautical Twilight 3:42 AM EDT 9:57 PM EDT
Astronomical Twilight 2:41 AM EDT 10:58 PM EDT
Moon 11:17 AM EDT (7/3) 11:38 PM EDT (7/3)
Length of Visible Light 16h 39m
Length of Day
15h 26m
Waxing Crescent, 33% of the Moon is Illuminated
Jul 3
Waxing Crescent
Jul 5
First Quarter
Jul 12
Full
Jul 18
Last Quarter
Jul 26
New

Hourly Weather History & Observations

Time (EDT) Temp. Heat Index Dew Point Humidity Pressure Visibility Wind Dir Wind Speed Gust Speed Precip Events Conditions
12:52 AM 64.9 °F - 63.0 °F 93% 29.91 in 5.0 mi Calm Calm - N/A   Clear
1:42 AM 64.0 °F - 62.1 °F 93% 29.92 in 6.0 mi Calm Calm - N/A   Scattered Clouds
1:52 AM 63.0 °F - 61.0 °F 93% 29.91 in 6.0 mi Calm Calm - N/A   Mostly Cloudy
2:03 AM 64.0 °F - 62.1 °F 93% 29.93 in 7.0 mi Calm Calm - N/A   Mostly Cloudy
2:22 AM 64.9 °F - 63.0 °F 93% 29.92 in 2.5 mi Calm Calm - N/A   Overcast
2:29 AM 64.9 °F - 63.0 °F 93% 29.92 in 1.2 mi Calm Calm - N/A   Overcast
2:35 AM 64.9 °F - 63.0 °F 93% 29.92 in 3.0 mi Calm Calm - N/A   Overcast
2:42 AM 64.9 °F - 63.0 °F 93% 29.92 in 1.8 mi Calm Calm - N/A   Overcast
2:47 AM 64.4 °F - 64.4 °F 100% 29.92 in 0.8 mi Calm Calm - N/A   Mist
2:52 AM 64.9 °F - 64.0 °F 97% 29.90 in 0.5 mi Calm Calm - N/A Fog Fog
3:35 AM 66.0 °F - 64.0 °F 93% 29.92 in 1.2 mi Calm Calm - N/A   Overcast
3:42 AM 66.0 °F - 64.0 °F 93% 29.92 in 3.0 mi Calm Calm - N/A   Overcast
3:52 AM 66.0 °F - 64.0 °F 93% 29.91 in 4.0 mi Calm Calm - N/A   Overcast
4:36 AM 66.0 °F - 64.9 °F 96% 29.93 in 1.8 mi Calm Calm - N/A   Overcast
4:52 AM 66.0 °F - 64.0 °F 93% 29.93 in 0.5 mi Calm Calm - N/A Fog Fog
5:52 AM 64.9 °F - 63.0 °F 93% 29.96 in 0.2 mi Calm Calm - N/A Fog Fog
6:12 AM 64.9 °F - 63.0 °F 93% 29.97 in 1.2 mi Calm Calm - N/A   Mostly Cloudy
6:15 AM 64.9 °F - 63.0 °F 93% 29.97 in 2.0 mi Calm Calm - N/A   Mostly Cloudy
6:34 AM 64.9 °F - 64.0 °F 97% 29.98 in 3.0 mi Calm Calm - N/A   Partly Cloudy
6:52 AM 66.0 °F - 64.0 °F 93% 29.98 in 5.0 mi Calm Calm - N/A   Scattered Clouds
7:19 AM 66.9 °F - 64.9 °F 93% 29.99 in 7.0 mi NW 3.5 mph - N/A   Mostly Cloudy
7:32 AM 68.0 °F - 66.0 °F 93% 29.99 in 1.8 mi West 3.5 mph - N/A   Overcast
7:35 AM 66.9 °F - 66.0 °F 97% 29.99 in 0.8 mi Calm Calm - N/A   Overcast
7:52 AM 68.0 °F - 66.0 °F 93% 29.99 in 0.2 mi Calm Calm - N/A Fog Fog
8:10 AM 69.1 °F - 66.9 °F 93% 29.99 in 1.2 mi Calm Calm - N/A   Overcast
8:15 AM 69.1 °F - 66.9 °F 93% 30.00 in 3.0 mi Calm Calm - N/A   Overcast
8:52 AM 73.0 °F - 66.9 °F 81% 29.98 in 10.0 mi Calm Calm - N/A   Overcast
9:00 AM 73.9 °F - 68.0 °F 82% 29.99 in 10.0 mi Calm Calm - N/A   Mostly Cloudy
9:19 AM 73.9 °F - 68.0 °F 82% 29.98 in 10.0 mi Calm Calm - N/A   Scattered Clouds
10:52 AM 81.0 °F 83.8 °F 68.0 °F 65% 29.96 in 10.0 mi NNW 4.6 mph - N/A   Clear
11:52 AM 84.0 °F 84.9 °F 63.0 °F 49% 29.97 in 10.0 mi Variable 3.5 mph - N/A   Clear
12:52 PM 84.9 °F 86.1 °F 64.0 °F 49% 29.96 in 10.0 mi Variable 3.5 mph - N/A   Partly Cloudy
1:52 PM 86.0 °F 87.3 °F 64.0 °F 48% 29.96 in 10.0 mi Variable 3.5 mph - N/A   Scattered Clouds
3:52 PM 87.1 °F 88.3 °F 64.0 °F 46% 29.92 in 10.0 mi Calm Calm - N/A   Partly Cloudy
4:52 PM 86.0 °F 87.3 °F 64.0 °F 48% 29.90 in 10.0 mi SE 4.6 mph - N/A   Partly Cloudy
5:52 PM 84.0 °F 86.3 °F 66.0 °F 55% 29.86 in 10.0 mi South 10.4 mph - N/A   Clear
6:52 PM 81.0 °F 83.0 °F 66.0 °F 60% 29.87 in 10.0 mi SSE 6.9 mph - N/A   Clear
7:52 PM 80.1 °F 82.7 °F 68.0 °F 67% 29.88 in 10.0 mi South 4.6 mph - N/A   Clear
8:47 PM 77.0 °F - 69.8 °F 78% 29.91 in 8.0 mi West 8.1 mph - 0.01 in Rain , Thunderstorm Light Thunderstorms and Rain
8:52 PM 75.9 °F - 69.1 °F 79% 29.91 in 6.0 mi WNW 11.5 mph 25.3 mph 0.01 in Rain , Thunderstorm Light Thunderstorms and Rain
9:02 PM 71.1 °F - 66.9 °F 87% 29.94 in 2.0 mi NW 10.4 mph 31.1 mph 0.10 in Rain , Thunderstorm Heavy Rain
9:04 PM 70.0 °F - 66.9 °F 90% 29.94 in 1.8 mi Variable 6.9 mph 21.9 mph 0.12 in Rain , Thunderstorm Heavy Rain
9:09 PM 70.0 °F - 66.9 °F 90% 29.93 in 1.2 mi WNW 10.4 mph 18.4 mph 0.18 in Rain , Thunderstorm Heavy Thunderstorms and Rain
9:16 PM 69.1 °F - 64.9 °F 87% 29.94 in 1.5 mi WNW 16.1 mph 23.0 mph 0.26 in Rain , Thunderstorm Heavy Thunderstorms and Rain
9:32 PM 68.0 °F - 66.0 °F 93% 29.98 in 2.0 mi South 11.5 mph 21.9 mph 0.36 in Rain , Thunderstorm Thunderstorms and Rain
9:41 PM 68.0 °F - 64.9 °F 90% 29.98 in 4.0 mi South 4.6 mph - 0.38 in Rain , Thunderstorm Light Thunderstorms and Rain
9:49 PM 68.0 °F - 64.4 °F 88% 29.98 in 3.0 mi South 4.6 mph - 0.40 in Rain , Thunderstorm Rain
9:52 PM 68.0 °F - 64.9 °F 90% 29.97 in 3.0 mi SSE 4.6 mph - 0.41 in Rain Rain
10:35 PM 66.9 °F - 64.9 °F 93% 29.96 in 10.0 mi WSW 5.8 mph - 0.06 in Rain Light Rain
10:52 PM 66.9 °F - 64.9 °F 93% 29.96 in 10.0 mi SW 3.5 mph - 0.06 in Rain Light Rain
11:14 PM 66.9 °F - 64.9 °F 93% 29.98 in 10.0 mi SW 3.5 mph - 0.01 in Rain Light Rain
11:52 PM 66.9 °F - 64.9 °F 93% 29.97 in 10.0 mi Calm Calm - 0.03 in Rain Light Rain